Location: Newark
(51.2625°N, 13.3939°E)
Time: 04:47:35
(UTC+00:00)

Explorer 7 - Pass Details

Date: 16 November 2019
Orbit: 485 x 680 km, 50.3° (Epoch: 06 December)

Event Time Altitude Azimuth Distance (km) Brightness Sun altitude
Rises 02:11:07 0° 253° (WSW) 2,853 - -39.1°
Reaches altitude 10° 02:13:29 10° 251° (WSW) 1,917 - -38.7°
Maximum altitude 02:17:49 69° 168° (SSE) 604 - -38.1°
Drops below altitude 10° 02:21:54 10° 85° (E) 1,799 - -37.5°
Exits shadow 02:22:00 - 85° (E) 1,843 10.2 -37.5°
Sets 02:24:03 0° 83° (E) 2,661 11.2 -37.2°
